GFSCGP_prec_radar_159.txt.gz
Reflectivity
-20 -20 -20 -20 -20 -20 -20 -20 -20 -20 -20 -20 -20 -20 -20 -20 -20 -20 -20 -20 -20 -20 -20 -20 -20 -20 -20 -20 -20 -20 -20 -20 -20 -20 -20 -20 -20 -20 -20 -9 -10 -17 -20 -5
-20 -20 -20 -20 -20 -20 -20 -20 -20 -20 -20 -20 -20 -20 -20 -20 -20 -20 -20 -20 -20 -20 -20 -20 -20 -20 -20 -20 -20 -20 -20 -20 -20 -20 -20 -20 -20 -20 -20 -20 -20 -1 -15 -20
-20 -20 -20 -20 -20 -20 -20 -20 -20 -20 -20 -20 -20 -20 -20 -20 -20 -20 -20 -20 -20 -20 -20 -20 -20 -20 -20 -20 -20 -20 -20 -20 -20 -20 -20 -20 -20 -20 -20 -20 -20 -19 -14 1
-20 -20 -20 -20 -20 -20 -20 -20 -20 -20 -20 -20 -20 -20 -9 -20 -20 -20 -20 -20 -20 -20 -20 -20 -20 -20 -20 -20 -20 -20 -20 -20 -20 -20 -20 -20 -20 -20 -20 -20 -20 -20 -7 1
-20 -20 -20 -20 -19 -12 -20 -20 -20 -20 -20 -20 -20 -20 6 -1 -20 -20 -20 -20 -20 -20 -20 -20 -20 -20 -20 -20 -20 -20 -20 -20 -20 -20 -20 -20 -20 -20 -20 -20 -20 -20 -19 -2
-20 -18 -20 -20 -0 -1 -13 -20 -20 -20 -20 -20 -20 -15 -9 12 -10 -20 -20 -20 -20 -20 -20 -20 -20 -20 -20 -20 -20 -20 -20 -20 -20 -20 -20 -20 -20 -20 -20 -20 -7 -20 -16 -1
-20 -20 -17 6 -1 -3 -7 -20 -20 -3 -20 -20 -20 -3 -12 13 1 -20 -20 -20 -20 -20 -20 -20 -20 -20 -20 -20 -20 -20 -20 -7 -20 -20 -20 -20 -20 -20 -20 -20 -20 -13 10 -1
-20 -20 -20 -20 3 15 11 5 -16 1 -13 -20 -20 -9 -20 7 8 -20 -20 -20 -20 -20 -20 -20 -20 -20 -20 -20 -20 -20 -18 -6 -10 -20 -5 6 -20 -20 -20 -20 -20 -19 4 -20
-20 -20 -20 -20 -20 -18 -1 12 9 -14 5 -20 -20 -20 -20 15 11 -15 -20 -20 -20 -20 -20 -20 -20 -20 -20 -20 -20 -20 -20 -18 -17 -14 1 -20 -20 -20 -20 -20 -20 -18 -20 -20
-20 -20 -20 -20 -20 -20 -20 5 23 11 -2 -20 -20 -20 -7 19 8 -19 -20 -20 -20 -20 -20 -20 -20 -20 -20 -20 -20 -20 -20 -20 -20 -20 -18 -20 -20 -20 -20 -20 -20 -20 -20 -20
-15 -11 -20 -20 -20 -20 -20 -20 -8 7 3 -20 -20 -20 7 24 9 -20 -20 -20 -20 -20 -20 -20 -20 -20 -20 -20 -20 -20 -20 -20 -20 -20 -20 -20 -20 -20 -20 -13 -3 -19 -18 -20
23 2 -20 -20 -20 -11 17 -20 -16 4 2 -20 -20 -20 15 17 7 8 -20 -20 -20 -20 -20 -20 -20 -20 -20 -20 -20 -20 -17 -20 -20 -19 -19 -20 -20 -20 -20 1 -18 -20 -20 5
-16 9 12 -15 21 23 22 9 8 -19 -20 -20 -20 -20 11 13 20 14 6 -20 -20 -20 -20 -20 -20 -20 -20 -20 -20 -20 -20 -2 -16 -12 -20 -20 -20 -20 -20 -20 -17 4 -14 8
8 16 16 7 17 27 21 31 32 -20 -20 -20 -20 -20 13 17 12 15 5 -20 -20 -20 -20 -20 -20 -20 -20 -20 -20 -20 -20 -20 -5 -20 -20 -20 -20 -20 -20 -20 4 -20 6 -8
-18 7 -20 -20 -12 17 10 7 27 21 -18 -20 -20 -20 -16 15 2 11 0 -18 -20 -20 -20 -20 -20 -20 -20 -20 -20 -20 -20 -20 0 -20 -20 -20 6 -12 -20 -20 -12 -1 9 -8
-20 -9 16 -20 -20 -20 11 -17 9 33 27 -9 -20 -20 -17 11 15 -8 10 -1 -20 -20 -20 -20 -20 -20 -20 -20 -20 -20 -20 -9 -20 -20 -20 -20 -20 -20 -20 -20 -20 3 -12 -11
8 -16 14 -2 -20 -20 -14 -3 1 8 14 -20 -20 -20 -20 8 14 -9 -5 10 3 -17 -20 -20 -20 -20 -20 -20 -20 -20 -20 -9 -1 -20 -20 -3 -16 -20 -19 -20 -20 -20 -18 -3
-1 9 11 3 -20 -20 -20 -19 9 20 2 -3 -20 1 -13 -8 8 5 -20 -20 -17 -20 -20 -20 -20 -20 -20 -20 -20 -20 -20 -13 1 -20 -20 -3 1 -0 -2 -20 -20 -12 -8 -13
-11 0 17 5 -18 -20 -20 -20 -20 -19 -2 -4 -20 5 5 -20 5 10 -8 -13 -20 -20 -20 -20 -20 -20 -20 -20 -20 -20 -20 -20 1 -20 -20 -5 -19 -16 -6 -20 5 -13 -20 -20
-17 -3 7 11 -19 -20 -20 -20 -20 -20 -12 -4 -8 -4 10 -20 -13 5 5 -19 -20 -20 -20 -20 -20 -20 -20 -20 -20 -20 -20 -20 -20 -14 -20 -6 14 -11 -19 -19 -20 -20 -20 -15
18 15 12 12 5 -20 -20 -20 -20 -20 -20 -13 7 -13 -18 -20 -20 -19 -4 -20 -20 -20 -20 -20 -20 -20 -20 -20 -20 -20 -20 -20 -20 -20 -3 -20 -7 -1 -20 -20 -20 -20 -20 -20
18 23 16 9 21 6 -20 -20 -20 -20 -20 -18 -13 -20 -20 -20 -20 -20 -20 -20 -20 -20 -20 -20 -20 -20 -20 -20 -20 -20 -20 -20 -20 -10 2 -5 2 -20 -20 -20 -20 -20 -20 -20
-20 -18 11 -18 -20 -20 -20 -20 -20 -20 -20 -20 -20 -20 -20 -20 -20 -20 -20 -20 -20 -20 -20 -20 -20 -20 -20 -20 -20 -20 -20 -20 -20 -17 -20 -20 -10 -20 -20 -20 -20 -20 -20 -20
-20 -20 11 -19 -20 -20 -20 -20 -20 -20 -20 -20 -20 -20 -20 -20 -20 -20 -20 -20 -20 -20 -20 -20 -20 -20 -20 -20 -20 -20 -20 -20 -14 -20 -20 -20 -20 -20 -20 -20 -20 -20 -20 -20
-20 -20 -12 -20 -20 -20 -20 -20 -20 -20 -20 -20 -20 -20 -20 -20 -20 -20 -20 -20 -20 -20 -20 -20 -20 -20 -20 -20 -20 -20 -20 -20 -12 -20 -17 -20 -18 -20 -20 -20 -20 -20 -20 -20
-20 -10 -2 -20 -20 -20 -20 -20 -20 -20 -20 -20 -20 -20 -20 -20 -19 -19 -19 -20 -20 -20 -20 -20 -20 -20 -20 -20 -20 -20 -20 -20 -20 -20 -19 -14 -20 -20 -20 -20 -20 -20 -20 -20

GFSCGP_prec_radar_162.txt.gz
Reflectivity
-20 -20 -20 -20 -20 -20 -20 -20 -20 -20 -20 -20 -20 -20 -20 -20 -20 -20 -20 -20 -20 -20 -20 -20 -20 -20 -20 -20 -20 -20 -20 -20 -20 -20 -20 -20 2 4 -20 -18 -20 9 -20 -20
-20 -20 -20 -20 -20 -20 -20 -20 -20 -20 -20 -20 -20 -20 -20 -20 -20 -20 -20 -20 -20 -20 -20 -20 -20 -20 -20 -20 -20 -20 -20 -20 -20 -20 -20 -20 -20 -10 -20 -16 -20 -18 -20 13
-20 -20 -20 -20 -20 -20 -20 -20 -20 -20 -20 -20 -20 -20 -20 -20 -20 -20 -20 -20 -20 -20 -20 -20 -20 -20 -20 -20 -20 -20 -20 -20 -20 -20 -20 -20 -20 -20 2 5 -20 -20 -15 -20
-20 -20 -20 -20 -20 -20 -20 -20 -20 -20 -20 -20 -20 -20 -20 -20 -2 -15 -20 -20 -20 -20 -20 -20 -20 -20 -20 -20 -20 -20 -20 -20 -20 -20 -20 -20 -20 -20 -20 5 -20 -0 -20 -20
-20 -20 -20 -20 -20 -20 -20 -20 -20 -20 -20 -20 -20 -20 -20 -19 8 -10 -20 -20 -20 -20 -20 -20 -20 -20 -20 -20 -20 -20 -20 -20 -20 -20 -20 -20 -20 -20 -20 -20 -20 -20 -20 -20
-20 -20 -20 -20 -20 -19 -20 -20 -20 -20 -20 -20 -20 -20 -20 -19 16 -3 -20 -20 -20 -20 -20 -20 -20 -20 -20 -20 -20 -20 -20 -20 -20 -20 -20 -20 -20 -20 -20 -20 -20 -6 -1 4
-20 -20 -20 -20 -20 -20 -20 -20 3 -1 -20 -20 -20 -20 -20 -15 14 8 -20 -20 -20 -20 -20 -20 -20 -20 -20 -20 -13 -10 -20 -16 -20 -20 -16 -20 -18 -20 -12 -13 -20 -12 1 11
-20 -20 -20 -20 -20 -20 -20 -20 -20 -2 5 -2 -9 -7 -20 -16 11 17 -20 -20 -20 -20 -20 -11 -20 -20 -20 -20 -20 -16 -3 3 -3 -20 -19 -19 -20 -20 -20 -20 -20 -20 -20 -20
-20 -20 -20 -20 -20 -20 -20 -20 -20 -20 -13 -17 -19 -20 -20 -2 1 7 -19 -20 -20 -20 -20 -20 -20 -20 -20 -7 -14 -20 -8 -20 -20 -6 -2 -20 -20 -18 -20 -20 -20 -20 -20 -16
-20 -20 -20 -20 -20 -20 -20 -20 -11 -10 8 10 -20 -20 -20 7 -0 10 -20 -19 -20 -4 -19 -14 -20 -20 -20 -11 2 -7 -20 -20 -20 -9 -9 -20 -20 -20 -20 -20 -20 -20 -20 -20
12 12 -19 -20 -20 -20 -9 9 14 6 -20 -20 -14 -12 -20 10 15 7 7 -2 -19 -15 -7 -5 -20 -20 -20 -2 -1 4 -3 -4 -5 1 -20 -9 -18 -20 -20 -20 -20 -20 -12 -10
-14 16 15 -20 -15 -13 -12 29 10 -11 -20 -20 -20 -10 -20 2 6 8 13 -3 -20 -20 -20 -20 -20 -20 -3 -4 -2 2 -4 -20 -20 -4 -19 -19 -20 -20 -20 -4 -4 -20 -20 -20
-20 -7 -10 -20 -17 11 13 28 24 38 19 9 -20 -15 -20 -12 -8 -4 8 -20 -20 -20 -20 -20 -19 -20 -20 -9 -9 -8 -20 -20 -20 -20 -20 -20 -20 -20 -4 -4 -2 -15 -11 -2
5 7 10 7 -12 31 24 18 37 31 22 19 -20 10 -20 7 10 9 18 8 -19 -20 -20 -20 -1 -20 -20 -20 -20 -4 -3 -20 -20 -20 -20 -20 -20 -20 -20 -8 -20 -20 -11 23
7 9 -9 -15 -20 -20 10 9 12 30 27 19 13 -12 14 -10 17 16 8 10 0 -20 -20 -20 -20 -20 -20 -20 -20 -15 -17 -20 -20 -19 -20 -20 -20 -20 -20 -20 -20 -20 -9 -14
-10 -8 14 -20 -20 -20 -20 -7 -13 12 34 11 10 -2 -20 -19 -2 19 25 8 -1 -20 -20 -20 -20 -20 -20 -20 -20 -20 -20 -20 -20 -20 -20 -20 -20 -20 -20 -20 -20 -1 12 1
6 2 1 4 -20 -20 -19 -20 -20 -20 -2 13 4 -20 -20 -17 -3 17 24 14 -13 -20 -20 -20 -20 -20 -20 -20 -20 -20 -20 -20 -20 -20 -20 -20 -20 -20 -20 -20 -20 -20 -5 13
4 5 7 14 8 14 -17 -20 -20 -13 -20 -19 25 -2 24 -11 0 5 9 -17 1 -15 -4 -20 -20 -20 -20 -20 -20 -20 -20 -20 -20 -20 -20 -20 -20 -20 -20 -20 -20 -20 -17 -9
-20 3 19 16 15 -7 -8 -20 -20 -20 -2 -6 -8 15 13 22 -17 -19 -9 -18 -20 -18 -18 -17 -20 -20 -20 -20 -20 -20 -20 -20 -20 -20 -20 -20 -20 -20 -20 -20 -20 -20 -20 -7
-17 6 17 -1 20 21 -20 -20 -20 -20 -16 -17 -20 16 2 0 -17 -19 -20 -19 -20 -20 -20 -20 -20 -20 -20 -20 -20 -20 -20 -20 -20 -20 -9 -20 -20 -19 -20 -20 -20 -20 2 -18
22 14 19 -8 9 -8 -20 -20 -20 -20 -4 -20 -20 -20 -20 -20 -14 -20 -20 -20 -20 -20 -20 -20 -20 -20 -20 -20 -20 -20 -20 -20 -20 -20 -20 -20 -20 -20 -20 -20 -20 -20 -20 -20
14 18 20 13 13 12 -20 -20 -20 -20 -20 -20 -3 -12 -20 -20 -20 -19 -20 -20 -20 -20 -20 -20 -20 -20 -20 -20 -20 -20 -20 -20 -20 -20 -20 -20 -20 -20 -20 -20 -20 -20 -20 -20
5 16 15 12 -2 -20 -20 -14 -20 -20 -20 -20 -20 -20 -20 -20 -20 -20 -20 -20 -20 -20 -20 -20 -20 -20 -17 -6 -20 -20 -20 -20 -20 -20 -20 -20 -20 -20 -20 -20 -20 -20 -20 -20
-14 -18 -15 -14 -14 10 -20 -20 -20 -20 -20 -20 -20 -20 -20 -20 -20 -20 -20 -20 -20 -20 -20 -20 -20 -20 -14 -20 -20 -20 -20 -20 -20 -20 -17 -20 -20 -20 -20 -20 -20 -20 -20 -20
-6 2 -20 -20 -20 -20 -20 -20 -20 -20 -20 -20 -20 -20 -20 -20 -20 -20 -20 -20 -20 -20 -20 -20 -20 -20 -20 -20 -20 -20 -20 -20 -20 -19 7 -20 -20 -20 -20 -20 -20 -20 -20 -20
-14 -20 -20 -20 -20 -20 -20 -20 -20 -20 -20 -20 -20 -20 -20 -20 -20 -20 -20 -20 -20 -20 -20 -20 -20 -20 -20 -3 -20 -20 -20 -20 -20 -20 -3 -20 -20 -20 -20 -20 -20 -20 -20 -20

GFSCGP_prec_radar_165.txt.gz
Reflectivity
-20 -20 -20 -20 -20 -20 -20 -20 -20 -20 -20 -20 -20 -20 -20 -20 -20 -20 -20 -20 -20 -20 -20 -20 -20 -20 -20 -20 -20 -20 -20 -20 -20 -20 -20 -20 -20 -20 -20 -20 -20 -20 -20 -20
-20 -20 -20 -20 -20 -20 -20 -20 -20 -20 -20 -20 -20 -20 -20 -20 -20 -20 -20 -20 -20 -20 -20 -20 -20 -20 -20 -20 -20 -20 -20 -20 -20 -20 -20 -20 -20 -20 -20 -20 -20 -11 -20 -19
-20 -20 -20 -20 -20 -20 -20 -20 -20 -20 -20 -20 -20 -20 -20 -20 -20 -20 -20 -20 -20 -20 -20 -20 -20 -20 -20 -20 -20 -20 -20 -20 -20 -20 -20 -20 -20 -20 -20 -18 -19 0 -7 4
-20 -20 -20 -20 -20 -20 -20 -20 -20 -20 -20 -20 -20 -20 -20 -20 -20 -20 -20 -20 -20 -20 -20 -20 -20 -20 -20 -20 -20 -20 -20 -20 -20 -20 -20 -20 -20 -20 -20 -20 -15 1 -18 -20
-20 -20 -20 -20 -20 -20 -20 -20 -20 -20 -20 -20 -20 -20 -20 -20 -20 -20 -20 -20 -20 -20 -20 -20 -20 -20 -20 -20 -20 -20 -20 -20 -20 -20 -20 -20 -20 -20 -20 -20 9 7 -20 10
-20 -20 -20 -20 -20 -20 -20 -20 -20 -20 -20 -20 -20 -20 -20 -20 -20 7 -15 -20 -20 -20 -20 -20 -20 -20 -20 -20 -20 -20 -20 -20 -20 -20 -20 -20 -20 -20 -20 -12 8 -2 -20 -20
-20 -20 -20 -20 -20 -20 -20 -20 -20 -5 7 -20 -20 -20 -20 -20 -20 -15 18 -20 -20 -20 -20 -20 -20 -20 -20 -20 -20 -20 -20 -20 -20 -20 -20 -20 -20 -20 -14 6 -19 -20 -7 -12
-20 -20 -20 -20 -20 -20 -20 -20 7 -12 -3 -20 -2 -20 -20 -20 -20 -20 4 -6 -20 -20 -20 -20 -20 -20 -20 -20 -20 -20 -20 -20 -20 -20 -20 -20 -20 -20 -18 -20 -20 -20 -13 -6
-20 -20 -20 -20 -20 -20 -20 -1 -15 -12 -20 8 -20 -20 -20 -20 -20 -20 -20 -0 -12 -17 -20 -20 -20 -20 -20 -11 -19 -20 -19 -18 -17 -19 -20 -19 1 -20 -20 -4 -20 -16 -2 -20
-20 -15 -20 -20 -20 -20 -20 -20 14 26 24 13 -20 -20 -20 -20 -20 -20 -20 -19 2 -9 -20 -18 -20 -20 -20 -9 5 5 -12 -7 -20 -20 -20 -14 -19 -20 -20 -20 -19 -20 -20 -20
-20 -0 -20 -20 -20 -20 -20 2 -2 16 28 6 -9 -20 3 6 -15 -20 -20 -15 14 3 -3 -15 -20 -20 -20 -20 -12 -4 12 -11 8 0 -20 -15 -0 -20 -20 -20 -20 -20 -20 -20
-20 -20 -20 -20 -20 -19 -20 22 11 37 27 9 -20 -12 3 -11 -20 -20 -20 -14 16 4 -17 -20 -20 -20 -20 6 3 -19 -12 5 9 -19 -20 -10 -18 -20 -20 -20 -20 -20 -1 -1
-20 -20 -16 -20 -20 -20 -15 6 18 -6 33 27 20 -9 -17 -20 -20 -20 -20 11 11 -2 0 -14 -20 -20 -20 -16 8 2 -2 2 -1 -20 -20 -17 -4 -16 -20 -5 -20 -20 -20 -20
-11 11 11 1 -20 -20 -4 3 19 10 8 20 33 22 25 10 -20 -20 11 17 12 -2 -20 -17 -20 -20 -20 -20 -20 -20 -13 -14 -8 -20 -20 -7 -20 -20 -20 -20 -20 -20 -20 -18
-18 8 1 -17 -20 -20 -20 -19 14 5 21 6 24 36 35 21 -20 -20 16 16 7 4 -20 -20 -20 1 -20 -20 -20 -20 4 -20 -20 -20 -20 -20 -14 -20 -20 -20 -20 -20 -13 -6
-20 11 17 6 -20 -20 -20 -20 -11 7 10 14 6 27 27 4 -20 -20 28 25 9 -6 4 -3 -3 -2 -1 -20 -20 -20 -5 -15 -20 -20 -20 -20 -20 -20 -20 -17 -19 -20 -12 -20
16 14 17 6 -20 -20 -14 -20 -20 -20 -20 -20 -7 -0 12 -20 -20 -20 13 24 27 -2 -10 5 7 4 -2 -17 -20 -20 -20 -13 -20 -20 -20 -20 -20 -20 -20 -20 -20 -18 16 -9
-0 7 13 15 7 11 -19 -20 -20 -20 -20 -20 -20 18 27 14 14 3 -3 13 11 26 3 -9 -19 -20 -20 -20 -20 -20 -20 -20 -20 -20 -20 -20 -20 -20 -20 -20 -20 -6 15 15
6 7 20 20 9 -16 -20 -20 -20 -20 -20 -20 -20 13 29 21 10 4 -11 7 15 13 15 6 2 -10 -20 -20 -20 -20 -20 -20 -20 -20 -20 -20 -20 -20 -20 -20 -20 -16 3 -3
-10 -19 11 10 13 11 -20 18 -16 3 -18 -20 -20 -20 5 21 -18 -7 -17 17 9 15 18 21 9 8 -20 -20 -20 -20 -20 -20 -20 -20 -20 -20 -20 -20 -20 -8 14 -14 4 -12
14 10 11 8 19 -16 -20 14 0 -20 -5 -20 -20 -20 -20 -20 1 15 -19 -5 14 0 14 14 13 3 -0 -18 -18 -20 -20 -20 -20 -20 -20 -20 -3 3 -14 -9 9 10 -7 -20
16 19 17 8 21 19 -20 12 -20 17 -20 -20 -20 -20 -20 -20 1 20 2 -15 -16 -20 -1 10 -3 -3 6 -3 -18 -1 -14 -20 -20 -20 -20 -20 -20 -20 -20 -20 -18 -19 -20 -20
14 20 17 17 19 -9 20 25 3 -15 -20 -20 -20 -20 -20 -20 -17 14 -13 -20 -20 -20 -8 -11 3 -19 -2 3 10 9 1 -20 -20 -13 -20 -20 -20 -20 -20 -20 -20 -20 -20 -20
-14 -14 1 16 -20 -20 -7 -20 -20 -20 -20 -20 -20 -20 -20 -20 -20 2 -8 -20 -20 -20 -20 -14 -10 -7 -6 10 14 10 2 -20 -20 -19 -20 -20 -20 -20 -20 -20 -20 -20 -20 -20
-17 -17 -20 12 -20 -20 -20 -5 -18 -20 -20 -20 -20 -20 -20 -20 -20 -20 -20 -20 -20 -20 -20 -20 -20 -12 -19 6 16 13 -5 -20 -20 -20 -20 -20 -20 -20 -20 -20 -20 -20 -20 -20
-20 -20 5 4 16 22 -16 -11 15 -20 -20 -20 -20 -20 -20 -20 -20 -20 -20 -20 -20 -20 -20 -20 -20 -20 -16 -3 23 12 -11 -20 -20 -20 -18 -14 -20 -20 -20 -20 -20 -20 -20 -20

GFSCGP_prec_radar_168.txt.gz
Reflectivity
-20 -20 -20 -20 -20 -20 -20 -20 -20 -20 -20 -20 -20 -20 -20 -20 -20 -20 -20 -20 -20 -20 -20 -20 -20 -20 -20 -20 -20 -20 -20 -20 -20 -20 -20 -20 -20 -20 -20 -20 -20 -20 -20 -20
-20 -20 -20 -20 -20 -20 -20 -20 -20 -20 -20 -20 -20 -20 -20 -20 -20 -20 -20 -20 -20 -20 -20 -20 -20 -20 -20 -20 -20 -20 -20 -20 -20 -20 -20 -20 -20 -20 -20 -20 -20 -20 -20 -20
-20 -20 -20 -20 -20 -20 -20 -20 -20 -20 -20 -20 -20 -20 -20 -20 -20 -20 -20 -20 -20 -20 -20 -20 -20 -20 -20 -20 -20 -20 -20 -20 -20 -20 -20 -20 -20 -20 -20 -20 -20 -20 -16 -20
-20 -20 -20 -20 -20 -20 -20 -20 -20 -20 -20 -20 -19 -7 -2 -20 -14 -20 -8 -1 -20 -20 -20 -20 -20 -20 -20 -20 -20 -20 -20 -20 -20 -20 -20 -20 -20 -20 -20 -20 -20 -20 -20 13
-20 -20 -20 -20 -20 -20 -20 -20 -20 -20 -20 -20 -20 4 -2 -5 5 9 -9 -20 -20 -20 -20 -20 -20 -20 -20 -20 -20 -20 -20 -20 -20 -20 -20 -20 -20 -20 -20 -20 -18 -20 9 -2
-20 -20 -20 -20 -20 -20 -20 -20 -20 -20 -20 -20 -20 -20 -20 -20 -18 -4 -20 -20 -20 -20 -20 -20 -20 -20 -20 -20 -20 -20 -20 -20 -20 -20 -20 -20 -20 -20 -20 -20 -20 -8 -20 -20
-20 -20 -20 -12 -9 -20 -20 -18 4 -1 -10 -20 -20 -20 -20 -20 -20 -20 -20 -20 -20 -12 -19 -20 -20 -20 -13 -20 -20 -20 -20 -20 -20 -20 -20 -20 -20 -20 -20 -20 -20 -20 -20 -8
-20 -20 -20 -20 10 3 -20 -19 17 15 -20 -20 -20 -14 -20 -20 -20 -20 -20 -20 -20 -20 -9 -6 -20 -20 -20 -20 -20 -20 -20 -20 -20 -20 -20 -20 -20 -20 -20 -20 -20 -20 -15 -20
-20 -20 -20 -20 -20 -1 10 -19 23 22 6 -1 -20 -20 -20 -20 -20 -20 -20 -20 -20 -20 -20 -7 -11 -20 -20 -10 -20 -20 -20 -20 -20 -20 -14 -18 -20 -20 -20 -5 4 10 -9 -16
-20 -18 -20 -20 -19 -15 12 8 1 18 5 21 -6 -18 -20 -20 -20 -20 -20 -20 -20 -20 -19 -9 -14 -2 -15 -20 -9 -4 1 -4 -16 3 -4 -20 -20 -20 -10 7 -12 -20 -20 -20
-20 -20 -20 -20 -14 -16 -17 -3 5 22 14 17 -4 -6 -3 5 16 -13 -20 -20 -20 -20 -20 -20 -12 9 -12 -20 15 7 3 12 -18 -20 -15 -20 -20 -20 -17 -19 -20 -20 -20 -20
-20 -20 -20 -20 -20 -20 -20 -20 7 16 -19 22 2 -15 -20 32 29 -13 -19 -20 -20 -20 -20 -4 9 3 -12 -20 2 -13 11 7 12 -20 -20 6 -19 -20 -20 -20 -20 -20 -20 -20
-20 -20 -15 -20 -20 -20 -20 -19 13 28 24 -15 14 -0 13 24 -1 -20 1 -15 -20 -16 -20 -6 0 -7 1 9 6 4 7 -5 -18 -20 -20 -20 -20 -13 -20 -20 -20 -20 -10 -14
-20 -7 6 12 6 -20 -20 -20 -13 3 1 5 -20 -20 24 39 29 10 10 -1 -19 -16 -11 -5 3 -3 -20 -18 -9 -6 -2 8 2 4 -20 -20 -20 -20 -20 -20 -20 -20 -20 -19
12 9 -13 -20 -20 -10 -20 -20 -20 -15 -13 8 -20 -5 14 22 37 18 29 14 -16 -19 16 -16 18 -6 -17 -15 -16 -20 -2 11 -12 5 -20 -15 -20 -20 -20 -20 -20 -20 9 -14
-20 -8 8 1 -20 -20 -20 -20 -20 -20 -20 4 -20 6 -14 9 29 20 31 11 -8 14 28 16 -6 -17 4 6 -14 -20 -19 7 -15 -12 -11 -6 -20 -20 -20 -20 -20 4 -14 -12
-20 -18 -16 -20 -20 -7 -15 -20 -20 -20 -20 -20 -20 -20 -20 -20 19 25 20 23 31 13 8 12 4 3 4 5 -19 -20 -20 4 2 -20 -20 -20 -20 -1 -7 -20 -20 -20 -10 -20
-20 -11 2 6 -4 3 -20 -20 -20 -12 -20 -20 -20 -20 -20 -20 14 31 27 21 33 29 15 8 -10 -19 -20 -20 -19 -20 -19 -5 -10 -20 -20 -20 -4 -1 -20 -20 -20 -4 -9 -19
-20 -20 9 14 -9 -20 -20 -9 -20 -20 -20 -20 -20 -20 -20 -16 11 27 27 0 15 33 18 4 -8 -2 -13 -17 -20 -14 -20 7 -16 -20 -20 -8 9 8 -11 -20 -6 7 3 -2
16 23 1 -18 8 5 -20 -20 -19 -20 -12 -20 -10 -20 -20 -13 3 4 18 -18 -20 10 26 4 10 4 -0 -20 -20 -20 13 -8 -20 -20 7 -5 14 -2 6 10 5 6 -3 -16
8 6 15 -19 13 -16 -20 -8 16 13 23 -13 -20 -20 -20 -20 -15 -20 -0 18 -1 5 19 30 7 13 10 7 -19 -20 -2 2 -20 -16 10 4 -20 15 12 7 8 -6 19 -20
-5 12 15 22 18 2 6 5 -1 -17 19 22 -11 -20 -16 9 -20 -18 -9 -1 16 -14 -17 12 24 13 11 6 3 -20 6 2 -20 0 10 3 -0 3 10 14 12 9 -9 -20
-5 23 16 21 -6 -20 -20 -19 10 -10 16 26 -20 -20 -20 -20 -20 -17 -4 -8 7 -14 -20 -8 13 13 15 10 9 -2 -13 -3 -20 0 10 1 -4 -1 12 7 10 -6 -20 -20
-20 -7 12 -20 -20 -20 -20 11 -2 13 -20 -20 -20 -20 -20 -15 -20 -20 -20 -20 -12 -20 -17 -18 8 4 9 8 -1 0 -18 7 -20 -19 7 11 -7 -20 4 10 -3 -20 -20 -20
-20 -20 -20 -20 -20 -20 -4 -20 -20 -15 -20 -20 -20 -20 -20 -20 -20 -20 -20 -20 -20 -20 -20 -20 -7 -8 7 -2 4 -5 -14 15 -20 -20 -7 4 3 -20 -4 7 -20 -20 -20 -20
-20 -20 -16 -20 -20 -2 -7 -20 7 -20 -20 -20 -20 -20 -20 -20 -20 -20 -20 -20 -20 -20 -20 -20 -5 -20 -19 -0 4 7 -6 18 -20 1 -6 13 -3 -20 -20 -20 -18 -20 -20 -20

GFSCGP_prec_radar_171.txt.gz
Reflectivity
-20 -20 -20 -20 -20 -20 -20 -20 -20 -20 -20 -20 -20 -20 -20 -20 -20 -20 -20 -20 -20 -20 -20 -20 -20 -20 -20 -20 -20 -20 -20 -20 -20 -20 -20 -20 -20 -20 -20 -20 -20 -20 -20 -20
-20 -20 -20 -20 -20 -20 -20 -20 -20 -20 -20 -20 -20 -20 -20 -20 -20 -20 -20 -20 -20 -20 -20 -20 -20 -20 -20 -20 -20 -20 -20 -20 -20 -20 -20 -20 -20 -20 -20 -20 -20 -20 -20 -20
-20 -20 -20 -20 -20 -20 -20 -20 -20 -20 -20 -20 -20 -20 -20 -20 -20 -20 -20 -20 -20 -20 -20 -20 -20 -20 -20 -20 -20 -20 -20 -20 -20 -20 -20 -20 -20 -20 -20 -20 -20 -20 -20 -20
-20 -20 -20 -20 -20 -20 -20 -20 -20 -20 -20 -20 -20 -20 -20 -20 -20 -20 -20 -20 -11 -9 -20 -20 -20 -20 -20 -20 -20 -20 -20 -20 -20 -20 -20 -20 -20 -20 -20 -20 -20 -20 -20 -20
-20 -20 -20 -20 -20 -20 -20 -20 -20 -20 -20 -20 -20 -20 -20 -20 -20 -20 -20 -20 -20 -2 10 -2 -20 -20 -20 -20 -20 -20 -20 -20 -20 -20 -20 -20 -20 -20 -20 -20 -20 -20 -20 1
-20 -20 -20 -18 -20 -20 -20 -20 -20 -20 -20 -19 -20 -20 -20 -20 -20 -20 -20 -20 -20 -14 -5 9 7 -20 -20 -20 -20 -20 -20 -20 -20 -20 -20 -20 -20 -20 -20 -20 -20 -20 -20 -20
-20 -20 -20 3 -17 -20 -20 -20 -9 -16 -20 -20 -20 -20 -20 -20 -20 -20 -20 -20 -20 -20 -7 -16 -7 -19 -20 -20 -20 -20 -20 -20 -20 -20 -20 -20 -20 -20 -20 -20 -20 -20 -20 -20
-20 -20 -20 -15 4 -2 -8 6 0 19 -19 -20 -20 -11 -20 -20 -20 -20 -20 -20 -20 -20 -17 -7 -18 -13 -20 -20 -20 -20 -20 -20 -20 -20 -20 -20 -20 -20 -20 -20 -20 -20 -20 -20
-20 -20 -20 -20 -11 7 3 -11 -20 -20 -20 6 13 -20 -8 -15 -20 -20 -20 -20 -20 -20 -20 -20 -20 -20 -20 -20 -20 -20 -20 -20 -20 -20 -20 -20 -20 -20 -20 -20 -20 -20 -20 -20
-20 -20 -20 -20 -18 3 8 11 -1 -17 18 -20 -20 -20 7 11 -20 -20 -20 -20 -20 -20 -20 -20 -20 -20 -20 -20 -20 -20 -20 -16 -20 -20 -20 -20 -20 -12 -11 5 -4 -14 -8 -0
-20 -20 -20 -20 -20 -16 -14 9 9 3 -12 -2 -12 -8 -4 -7 -20 -20 -20 -20 -20 -20 -20 -20 -20 -20 -20 -20 -14 -20 -13 2 -13 -10 -7 -15 -20 -0 -14 11 -8 -20 -20 -20
-20 -20 -20 -20 -20 -20 -20 -20 -16 5 -17 -8 12 0 28 1 -20 -20 -19 -14 8 -20 -20 -20 6 2 13 -20 -20 5 11 11 11 4 8 8 10 -20 -20 -20 -20 -20 -20 -20
-20 -20 -20 -20 -20 -20 -20 -20 -9 15 -5 18 14 6 -7 8 -20 -9 -17 -3 23 -18 -14 10 14 0 -8 -17 -13 9 10 11 14 -20 5 -10 1 -2 -17 -17 -17 -13 -20 -14
-18 -20 -20 -5 -15 -20 -20 -20 -20 -20 3 -6 -14 -20 -20 -20 -16 17 13 15 16 16 26 25 15 -7 -8 7 -20 4 11 8 1 -20 -20 -14 -13 7 4 -18 -20 -20 -20 -20
-20 -20 -20 -20 -20 -20 -20 -20 -20 -20 -20 -18 -20 -20 -20 -20 -20 -3 28 35 24 21 27 28 8 1 -15 -20 -16 3 9 9 -10 -20 -20 -20 -20 -14 -7 -20 -20 -20 -20 -20
-20 -20 -20 -20 -20 -20 -20 -20 -20 -20 -20 -20 -20 -20 -20 -20 -20 -11 17 23 26 22 35 26 27 26 -19 -20 -20 -20 -16 -1 2 11 -20 3 -20 -20 -20 -20 -19 -20 -20 -6
-20 -20 -20 -20 -20 -20 -20 -20 -20 -20 -20 -20 -20 -20 -20 -20 -20 -10 11 29 33 29 26 21 33 28 -6 -10 -20 -19 -20 -19 9 6 -20 -5 -4 -19 -20 -20 -20 -20 -14 -20
-20 -20 -20 -20 -17 -17 -20 -20 -20 -20 -20 -20 -20 -20 -20 -20 -20 -5 -2 19 27 30 25 30 39 28 24 -4 -20 -17 -20 -20 0 -20 -17 -20 -20 -9 -20 -13 -20 -19 -12 -3
-20 -20 -1 -20 -20 -20 -20 -20 -8 10 -20 -8 -20 -20 -20 -20 -20 -18 -20 7 30 29 36 24 16 18 24 7 -20 -20 -20 -20 -20 -20 -20 -20 -17 -18 -20 -10 -20 9 12 -20
-20 -20 4 22 4 -20 -20 -20 -18 -20 -17 5 -17 -20 -20 -20 -20 -20 -20 20 24 36 32 33 17 -20 -20 -20 -20 -20 8 5 -5 -20 -20 -18 -1 -10 -9 -2 5 2 10 7
-20 4 -20 -20 -6 -16 -19 17 -3 5 20 4 13 19 -20 -20 -20 -20 5 10 19 27 34 34 31 -14 -8 4 -19 -20 1 -6 -17 -17 -16 -12 2 -0 15 7 21 13 1 -8
-20 -17 -20 -20 -15 -1 11 -20 8 -10 11 4 -20 2 23 -20 -7 -20 -17 -11 -4 9 0 27 27 16 13 11 7 -7 -10 -9 -14 -20 -5 -11 -20 -4 3 20 14 8 4 -20
-20 -20 -20 5 20 -15 -20 -20 -20 -9 -3 18 -1 -6 -20 9 3 -0 -20 -20 4 3 -19 19 2 32 18 20 12 7 -1 3 -6 -20 -17 -12 -20 15 8 14 12 10 -15 -20
-20 -4 -19 -20 -20 -20 -20 -20 -20 -20 1 8 -20 -20 -20 -20 -8 -20 -20 -19 1 -5 10 5 -8 18 32 26 8 9 -7 11 -3 -20 -18 -19 -17 -1 9 -8 10 -9 -20 -20
-20 -20 -20 -20 -20 -20 -20 -20 -20 -20 -20 -20 -20 -20 -20 -20 -20 -20 -20 -20 -18 8 16 -9 11 -3 23 27 4 7 3 18 -8 -20 -5 -14 5 3 6 -15 6 -11 -20 -20
-20 -20 -20 -20 -20 -20 -20 -20 -20 -20 -20 -20 -20 -20 -20 -20 -20 -20 -20 -20 -20 8 9 -20 8 1 11 13 23 17 2 12 2 -20 -14 3 -5 -18 -10 -20 -15 12 -20 -20

GFSCGP_prec_radar_174.txt.gz
Reflectivity
-20 -20 -20 -20 -20 -20 -20 -20 -20 -20 -20 -20 -20 -20 -20 -20 -20 -20 -20 -20 -20 -20 -20 -20 -20 -20 -20 -20 -20 -20 -20 -20 -20 -20 -20 -20 -20 -20 -20 -20 -20 -20 -20 -20
-20 -20 -20 -20 -20 -20 -20 -20 -20 -20 -20 -20 -20 -20 -20 -20 -20 -20 -20 -20 -20 -20 -20 -20 -20 -20 -20 -20 -20 -20 -20 -20 -20 -20 -20 -20 -20 -20 -20 -20 -20 -20 -20 -20
-20 -20 -20 -20 -20 -20 -20 -20 -20 -20 -20 -20 -20 -20 -20 -20 -20 -20 -20 -20 -20 -20 -20 -20 -12 -20 -20 -20 -20 -20 -20 -20 -20 -20 -20 -20 -20 -20 -20 -20 -20 -20 -20 -20
-20 -20 -20 -20 -20 -20 -20 -20 -20 -20 -20 -20 -20 -20 -20 -20 -20 -20 -20 -20 -20 -20 -20 -18 -9 -10 -20 -10 0 -20 -20 -20 -20 -20 -20 -20 -20 -20 -20 -20 -20 -20 -20 -20
-20 -20 -20 -20 -20 -20 -20 -20 -20 -20 -20 -20 -20 -20 -20 -20 -20 -20 -20 -20 -20 -20 -20 -20 1 11 -3 -20 -14 1 -20 -20 -20 -20 -20 -20 -20 -20 -20 -20 -20 -20 -20 -20
-20 -20 -20 -20 -20 -20 -18 -20 2 -10 -20 -20 -20 -20 -20 -20 -20 -20 -20 -20 -20 -20 -20 -20 -20 8 3 -20 -19 8 -7 -20 -20 -20 -20 -20 -20 -20 -20 -20 -20 -20 -20 -19
-20 -20 -20 -20 -20 -20 -15 -17 10 8 -6 -20 -20 -20 -20 -20 -20 -20 -20 -20 -20 -20 -20 -20 -20 -2 -4 11 -1 4 -3 -20 -16 -20 -20 -20 -20 -20 -20 -20 -20 -20 -20 -20
-20 -20 -20 -20 -20 -20 -16 -3 10 10 -20 -20 -20 -7 -20 -20 -20 -20 -20 -20 -20 -20 -20 -20 -20 -19 -4 -16 14 7 -1 -20 -20 -20 -20 -20 -20 -20 -20 -20 -20 -20 -20 -20
-20 -20 -20 -20 -20 -12 4 -9 -2 -5 -20 -20 -20 -20 -20 -20 -20 -20 8 -20 -20 -20 -20 -20 -20 -20 -19 -9 -8 11 -16 -20 -20 -20 -20 -20 -20 -20 -20 -20 -20 -20 -20 -20
-20 -20 -20 -20 -20 -3 -16 -8 -14 -4 -15 -10 -20 -20 -20 -20 -20 -20 -20 -20 -20 -20 -20 -20 -20 -20 -20 -20 -11 10 -12 -20 -20 -20 -20 -20 -20 -20 -20 -20 -20 -20 -20 -9
-20 -20 -20 -20 -20 -20 -20 -14 -4 -0 -8 -20 -20 -20 -20 -20 -20 -20 -20 -17 -20 -20 -20 -20 -20 -20 -20 -20 -19 2 -4 -20 -20 -20 -20 -20 -20 -20 -20 -20 -20 -18 -12 4
-20 -20 -20 -20 -20 -20 -20 -20 -20 -11 -20 -19 -11 -18 -20 -20 -20 -20 -20 -20 -20 -18 -20 -2 -10 8 -20 -20 -20 -20 -3 13 2 -20 -20 -20 -20 -18 2 8 -19 -20 -20 -20
-20 -20 -20 -20 -20 -20 -20 -20 -20 -4 1 -13 9 -3 -20 5 -18 -19 10 9 25 10 4 4 16 -12 -20 12 8 -6 -1 16 8 5 -20 -14 6 1 6 -20 -20 -20 -20 -20
-20 -20 -20 -20 -20 -20 -20 -20 -20 -20 -7 -20 -20 -20 -20 -20 -20 9 18 33 10 10 10 -9 19 29 -20 11 8 10 14 17 14 0 7 -2 2 -12 -20 -20 -9 -20 -1 -20
-20 -20 -20 -20 -20 -20 -20 -20 -20 -20 -20 -20 -20 -20 -20 -20 -20 -19 -2 -7 18 14 20 21 27 30 -18 6 -19 9 11 7 7 2 -8 -14 -7 -8 -13 -19 -7 -20 -20 -0
-20 -20 -20 -20 -20 -20 -20 -20 -20 -20 -20 -20 -20 -20 -20 -20 -20 -20 -20 -20 -20 19 11 1 20 47 20 -8 2 19 17 5 11 -14 -20 -20 -9 7 -18 -20 -20 -20 -9 8
-20 -20 -20 -20 -20 -20 -20 -20 -20 -20 -20 -20 -20 -20 -20 -20 -20 -20 -20 -20 -20 18 20 14 35 19 23 4 1 -14 -20 -2 10 3 -4 10 -2 -13 3 -20 -20 -15 -19 -17
-20 -20 -20 -20 -20 -20 -20 -20 -20 -20 -20 -20 -20 -20 -20 -20 -20 -20 -20 -13 12 24 20 35 46 42 23 34 21 -13 -19 -20 7 3 -5 -8 -7 -20 -20 -20 -16 -9 -20 -20
-20 -20 -20 -20 -20 -20 -20 -20 -11 9 -20 -1 -12 10 -20 -20 -20 -20 -20 1 3 3 2 16 33 32 33 29 6 18 -0 -18 -1 -18 -17 -20 -16 14 -20 -20 -17 1 -20 -1
-20 -20 -20 -18 -20 -20 -20 -20 -20 -20 -8 16 35 -8 -20 -20 -20 -19 -5 -16 -17 9 4 18 36 43 27 26 -1 8 7 15 -20 -20 -20 -20 -2 -2 -20 -20 13 12 -9 7
-20 -20 -20 -19 3 -20 -20 -20 -19 -15 -13 8 -11 5 11 -20 -20 -5 -3 -20 -16 -13 11 21 33 21 -20 -0 19 -2 5 0 -5 -20 -20 13 -6 -1 -20 8 19 1 -3 12
-20 -20 -20 -20 -12 -16 -17 -20 -20 -20 -19 18 -20 -20 -7 27 16 -12 -12 -20 3 7 15 36 38 31 -5 -19 22 12 16 10 -14 -20 -2 0 8 13 -7 8 3 25 19 -11
-20 -20 -20 -17 -20 -20 -20 -20 -20 -20 -20 22 -19 -20 -20 -20 12 4 -12 -20 -1 11 17 32 38 36 32 20 22 18 9 5 8 -16 2 7 -8 9 4 13 16 15 -18 -20
-20 -20 -20 -20 -20 -20 -20 -20 -20 -20 -20 -20 -20 -20 -20 -20 -20 -8 -20 -20 2 10 7 27 40 38 33 27 22 19 -12 5 5 -5 -8 -19 6 -7 7 5 -2 5 -20 -20
-20 -20 -20 -20 -20 -20 -20 -20 -20 -20 -20 -20 -20 -20 -20 -20 -20 -20 -20 -20 2 11 15 20 35 30 33 34 27 20 18 10 6 -15 2 3 11 -6 8 5 9 -3 -20 -9
-20 -20 -20 -20 -20 -20 -20 -20 -20 -20 -20 -20 -20 -20 -20 -20 -20 -20 -20 -20 -3 8 9 13 -14 7 17 27 31 18 21 20 5 -20 -8 2 0 -12 -6 4 -6 8 14 11